Regional Weather Roundup
Issued by NWS

Home | Current Version | Previous Version | Text Only | Print | Product List | Glossary On
Versions: 1 2 3 4 5 6 7 8 9 10 11 12 13 14 15 16 17 18 19 20 21 22 23 24 25 26 27
000
ASUS45 KREV 201610
RWRNV
NEVADA REGIONAL WEATHER ROUNDUP
NATIONAL WEATHER SERVICE RENO NV
800 AM PST FRI JAN 20 2017

NOTE: "FAIR" INDICATES FEW OR NO CLOUDS BELOW 12,000 FEET WITH NO
SIGNIFICANT WEATHER AND/OR OBSTRUCTIONS TO VISIBILITY.

NVZ001-003-004-201700-
WESTERN NEVADA

CITY           SKY/WX    TMP DP  RH WIND       PRES   REMARKS
RENO           LGT SNOW  33  31  92 NE7       29.25F FOG
CARSON CITY    HVY SNOW  32  30  93 E14       29.29F
MINDEN           N/A    N/A N/A N/A MISG        N/A
PYRAMID LAKE     N/A     39 N/A N/A SE23        N/A
FALLON         CLOUDY    38  28  67 S12G23    29.33R
LOVELOCK       FLURRIES  32  28  85 E3        29.34S
HAWTHORNE        N/A    N/A N/A N/A MISG        N/A
$$

NVZ002-CAZ072-073-201700-
NORTHERN AND CENTRAL SIERRA

CITY           SKY/WX    TMP DP  RH WIND       PRES   REMARKS
S. LAKE TAHOE  LGT SNOW  30  27  88 S9        29.24F VSB 3/4
TRUCKEE        LGT SNOW  32  25  74 S15G29    29.24
SQUAW VLY 8000   N/A     23  23 100 S17         N/A
SUSANVILLE     LGT SNOW  34  32  93 E10       29.22F
MAMMOTH LAKES  HVY SNOW  22  22  99 SE5       29.37F VSB<1/4
BRIDGEPORT     HVY SNOW  27  24  89 CALM      29.27F VSB 1/4
$$

NVZ030-031-036-201700-
NORTHERN NEVADA

CITY           SKY/WX    TMP DP  RH WIND       PRES   REMARKS
ELKO           MOCLDY    23  19  85 E7        29.45F
WINNEMUCCA     CLOUDY    33  27  78 E13G23    29.34F
WENDOVER       CLOUDY    23  21  93 SW6       29.60F
$$

NVZ035-037-201700-
CENTRAL NEVADA

CITY           SKY/WX    TMP DP  RH WIND       PRES   REMARKS
ELY            CLOUDY    23  21  92 S12       29.49F
EUREKA           N/A     28  22  78 SE17G24   29.44F
$$

NVZ013-014-201700-
SOUTH CENTRAL NEVADA

CITY           SKY/WX    TMP DP  RH WIND       PRES   REMARKS
TONOPAH        LGT SNOW  31  29  92 S12       29.48F FOG
$$

NVZ017-020-022-201700-
SOUTHERN NEVADA

CITY           SKY/WX    TMP DP  RH WIND       PRES   REMARKS
LAS VEGAS      CLOUDY    49  37  63 S9        29.60R
N. LAS VEGAS   CLOUDY    48  37  65 S16       29.59S
NELLIS AFB     CLOUDY    49  38  66 SE12      29.61R
HENDERSON      LGT RAIN  45  39  79 S13       29.63S
MERCURY        LGT RAIN  43  34  70 S22G28    29.57R
$$




USA.gov is the U.S. government's official web portal to all federal, state and local government web resources and services.